Location: ?????
(32.7281°N, 34.9563°E)
Time: 17:33:39
(UTC+00:00)

ERS-2 - Pass Details

Date: 29 October 2020
Orbit: 493 x 497 km, 98.6° (Epoch: 29 November)

Event Time Altitude Azimuth Distance (km) Brightness Sun altitude
Rises 15:40:13 0° 359° (N) 2,579 5.7 -10.8°
Reaches altitude 10° 15:42:29 10° 348° (NNW) 1,693 4.9 -11.2°
Maximum altitude 15:45:37 28° 288° (WNW) 959 4.3 -11.9°
Drops below altitude 10° 15:48:44 10° 228° (SW) 1,685 5.7 -12.5°
Sets 15:50:59 0° 217° (SW) 2,564 6.5 -13.0°
